TimeCDT,TemperatureF,Dew PointF,Humidity,Sea Level PressureIn,VisibilityMPH,Wind Direction,Wind SpeedMPH,Gust SpeedMPH,PrecipitationIn,Events,Conditions,WindDirDegrees,DateUTC
12:15 AM,44.4,36.7,74,30.32,10.0,Calm,Calm,-,N/A,,Clear,0,2013-05-25 05:15:00
12:35 AM,44.2,37.2,76,30.32,10.0,Calm,Calm,-,N/A,,Clear,0,2013-05-25 05:35:00
12:55 AM,43.9,37.0,77,30.31,10.0,Calm,Calm,-,N/A,,Clear,0,2013-05-25 05:55:00
1:15 AM,43.5,37.0,78,30.31,10.0,Calm,Calm,-,N/A,,Clear,0,2013-05-25 06:15:00
1:35 AM,42.6,36.5,79,30.32,10.0,Calm,Calm,-,N/A,,Clear,0,2013-05-25 06:35:00
1:55 AM,39.2,35.6,87,30.32,10.0,Calm,Calm,-,N/A,,Clear,0,2013-05-25 06:55:00
2:15 AM,38.7,36.0,90,30.31,10.0,Calm,Calm,-,N/A,,Clear,0,2013-05-25 07:15:00
2:35 AM,38.8,36.1,90,30.31,10.0,Calm,Calm,-,N/A,,Clear,0,2013-05-25 07:35:00
2:55 AM,39.6,36.9,90,30.31,10.0,Calm,Calm,-,N/A,,Clear,0,2013-05-25 07:55:00
3:15 AM,41.7,37.8,86,30.31,10.0,East,3.5,-,N/A,,Clear,90,2013-05-25 08:15:00
3:35 AM,42.4,37.8,83,30.32,10.0,East,3.5,-,N/A,,Clear,100,2013-05-25 08:35:00
3:55 AM,42.8,37.4,81,30.31,10.0,East,4.6,-,N/A,,Clear,90,2013-05-25 08:55:00
4:15 AM,42.3,36.1,79,30.31,10.0,East,3.5,-,N/A,,Clear,90,2013-05-25 09:15:00
4:35 AM,42.4,37.0,81,30.33,10.0,SE,3.5,-,N/A,,Clear,130,2013-05-25 09:35:00
4:55 AM,42.3,36.9,81,30.33,10.0,Calm,Calm,-,N/A,,Clear,0,2013-05-25 09:55:00
5:15 AM,41.9,36.9,82,30.35,10.0,Calm,Calm,-,N/A,,Clear,0,2013-05-25 10:15:00
5:35 AM,41.4,36.9,84,30.35,10.0,Calm,Calm,-,N/A,,Clear,0,2013-05-25 10:35:00
5:55 AM,42.3,37.6,83,30.37,10.0,Calm,Calm,-,N/A,,Clear,0,2013-05-25 10:55:00
6:15 AM,42.8,37.6,82,30.37,10.0,SE,3.5,-,N/A,,Clear,130,2013-05-25 11:15:00
6:35 AM,43.7,38.5,82,30.38,10.0,SE,3.5,-,N/A,,Clear,140,2013-05-25 11:35:00
6:55 AM,45.7,39.0,78,30.38,10.0,ESE,4.6,-,N/A,,Clear,120,2013-05-25 11:55:00
7:15 AM,46.8,38.5,73,30.38,10.0,SE,4.6,-,N/A,,Clear,140,2013-05-25 12:15:00
7:35 AM,47.3,37.8,69,30.38,10.0,Calm,Calm,-,N/A,,Clear,0,2013-05-25 12:35:00
7:55 AM,49.1,38.1,66,30.37,10.0,SE,4.6,-,N/A,,Clear,130,2013-05-25 12:55:00
8:15 AM,50.9,37.8,61,30.37,10.0,SE,3.5,-,N/A,,Clear,140,2013-05-25 13:15:00
8:55 AM,54.7,38.7,55,30.37,10.0,SSE,5.8,-,N/A,,Clear,150,2013-05-25 13:55:00
10:55 AM,59.5,38.3,45,30.36,10.0,SE,4.6,-,N/A,,Clear,140,2013-05-25 15:55:00
2:55 PM,63.5,36.5,37,30.33,10.0,SSW,3.5,-,N/A,,Mostly Cloudy,200,2013-05-25 19:55:00
6:55 PM,61.9,36.5,39,30.29,10.0,Calm,Calm,-,N/A,,Clear,0,2013-05-25 23:55:00
7:55 PM,58.6,37.8,46,30.29,7.0,Calm,Calm,-,N/A,,Clear,0,2013-05-26 00:55:00
11:55 PM,47.8,36.0,63,30.31,10.0,Calm,Calm,-,N/A,,Clear,0,2013-05-26 04:55:00